Weather History for De Queen, AR

Change the Weather History Date:

Monday, August 19, 2013

  Actual Average Record
Temperature  
Mean Temperature 75 °F 81 °F  
Max Temperature 90 °F 94 °F 108 °F (2011)
Min Temperature 59 °F 69 °F 56 °F (1992)
Degree Days  
Heating Degree Days 0 0  
Month to date heating degree days 0 0  
Since 1 June heating degree days 0 0  
Since 1 July heating degree days 0 0  
Cooling Degree Days 10 16  
Month to date cooling degree days 291 317  
Year to date cooling degree days 1359 1409  
Since 1 June cooling degree days 1127 1192  
Growing Degree Days 24 (Base 50)    
Moisture  
Dew Point 64 °F    
Average Humidity 73    
Maximum Humidity 100    
Minimum Humidity 46    
Precipitation  
Precipitation 0.00 in 0.07 in 0.64 in (1946)
Month to date precipitation 0.25 1.29  
Year to date precipitation 20.18 30.71  
Snow  
Snow 0.00 in - - ()
Month to date snowfall  
Since 1 June snowfall  
Since 1 July snowfall  
Snow Depth -    
Sea Level Pressure  
Sea Level Pressure 30.05 in    
Wind  
Wind Speed 2 mph (East)    
Max Wind Speed 8 mph    
Max Gust Speed 11 mph    
Visibility 4 miles    
Events Fog    
T = Trace of Precipitation, MM = Missing Value Source: NWS Daily Summary

Daily Weather History Graph

Daily Weather History Graph

Search for Another Location

Airport:

Trip Planner

Search our weather history database for the weather conditions in past years. The results will help you decide how hot, cold, wet, or windy it might be!

Date:

Astronomy

Aug. 19, 2013 Rise Set
Actual Time 6:42 AM CDT 7:59 PM CDT
Civil Twilight 6:15 AM CDT 8:25 PM CDT
Nautical Twilight 5:44 AM CDT 8:56 PM CDT
Astronomical Twilight 5:12 AM CDT 9:29 PM CDT
Moon 6:51 PM CDT (8/19) 5:03 AM CDT (8/19)
Length of Visible Light 14h 09m
Length of Day
13h 17m
Waxing Gibbous, 97% of the Moon is Illuminated
Aug 19
Waxing Gibbous
Aug 20
Full
Aug 28
Last Quarter
Sep 5
New
Sep 12
First Quarter

Hourly Weather History & Observations

Time (CDT) Temp. Heat Index Dew Point Humidity Pressure Visibility Wind Dir Wind Speed Gust Speed Precip Events Conditions
12:53 AM 69.1 °F - 64.9 °F 87% 30.04 in 10.0 mi East 3.5 mph - N/A   Clear
1:53 AM 64.9 °F - 64.0 °F 97% 30.04 in 5.0 mi Calm Calm - N/A   Clear
2:11 AM 64.9 °F - 64.0 °F 97% 30.06 in 2.0 mi Calm Calm - N/A   Clear
2:23 AM 64.9 °F - 64.0 °F 97% 30.06 in 5.0 mi Calm Calm - N/A   Clear
2:53 AM 64.0 °F - 64.0 °F 100% 30.05 in 5.0 mi Calm Calm - N/A   Clear
3:03 AM 64.0 °F - 64.0 °F 100% 30.06 in 1.5 mi Calm Calm - N/A   Clear
3:13 AM 63.0 °F - 63.0 °F 100% 30.06 in 0.8 mi Calm Calm - N/A   Clear
3:42 AM 63.0 °F - 63.0 °F 100% 30.06 in 2.0 mi Calm Calm - N/A   Clear
3:50 AM 62.6 °F - 62.6 °F 100% 30.06 in 0.8 mi Calm Calm - N/A   Clear
3:53 AM 63.0 °F - 63.0 °F 100% 30.05 in 0.2 mi Calm Calm - N/A Fog Fog
4:06 AM 62.1 °F - 62.1 °F 100% 30.06 in 0.2 mi Calm Calm - N/A Fog Fog
4:15 AM 62.1 °F - 62.1 °F 100% 30.06 in 0.5 mi Calm Calm - N/A Fog Fog
4:30 AM 63.0 °F - 62.1 °F 97% 30.06 in 0.2 mi Calm Calm - N/A Fog Fog
4:35 AM 63.0 °F - 62.1 °F 97% 30.06 in 0.5 mi Calm Calm - N/A Fog Fog
4:46 AM 61.0 °F - 61.0 °F 100% 30.06 in 0.2 mi Calm Calm - N/A Fog Fog
4:53 AM 62.1 °F - 62.1 °F 100% 30.05 in 0.2 mi Calm Calm - N/A Fog Fog
5:14 AM 62.1 °F - 61.0 °F 96% 30.06 in 1.0 mi Calm Calm - N/A   Mist
5:17 AM 62.1 °F - 61.0 °F 96% 30.06 in 2.5 mi Calm Calm - N/A   Partly Cloudy
5:24 AM 61.0 °F - 61.0 °F 100% 30.06 in 4.0 mi Calm Calm - N/A   Partly Cloudy
5:36 AM 61.0 °F - 61.0 °F 100% 30.06 in 1.5 mi Calm Calm - N/A   Clear
5:46 AM 62.1 °F - 61.0 °F 96% 30.07 in 0.5 mi Calm Calm - N/A Fog Fog
5:53 AM 63.0 °F - 62.1 °F 97% 30.05 in 0.5 mi Calm Calm - N/A Fog Fog
6:02 AM 61.0 °F - 61.0 °F 100% 30.07 in 0.2 mi Calm Calm - N/A Fog Fog
6:40 AM 62.1 °F - 61.0 °F 96% 30.08 in 0.8 mi Calm Calm - N/A   Mist
6:53 AM 59.0 °F - 59.0 °F 100% 30.07 in 0.2 mi Calm Calm - N/A Fog Fog
7:30 AM 62.1 °F - 62.1 °F 100% 30.09 in 0.5 mi Calm Calm - N/A Fog Fog
7:38 AM 64.0 °F - 64.0 °F 100% 30.09 in 0.2 mi Calm Calm - N/A Fog Fog
7:44 AM 64.0 °F - 64.0 °F 100% 30.09 in 1.0 mi Calm Calm - N/A   Mist
7:50 AM 64.4 °F - 64.4 °F 100% 30.09 in 2.0 mi Calm Calm - N/A   Partly Cloudy
7:51 AM 64.9 °F - 64.9 °F 100% 30.08 in 2.5 mi Calm Calm - N/A   Partly Cloudy
7:59 AM 66.0 °F - 66.0 °F 100% 30.09 in 4.0 mi Calm Calm - N/A   Partly Cloudy
8:53 AM 73.0 °F - 68.0 °F 84% 30.09 in 9.0 mi ENE 5.8 mph - N/A   Clear
9:53 AM 77.0 °F - 68.0 °F 74% 30.10 in 10.0 mi ENE 4.6 mph - N/A   Clear
10:53 AM 78.1 °F - 68.0 °F 71% 30.10 in 10.0 mi Calm Calm - N/A   Clear
11:53 AM 82.0 °F 84.5 °F 66.9 °F 60% 30.08 in 10.0 mi Calm Calm - N/A   Clear
12:53 PM 86.0 °F 88.8 °F 66.9 °F 53% 30.05 in 10.0 mi NNW 4.6 mph - N/A   Clear
1:53 PM 84.9 °F 86.6 °F 64.9 °F 51% 30.04 in 10.0 mi Variable 3.5 mph - N/A   Clear
2:53 PM 87.1 °F 88.9 °F 64.9 °F 48% 30.01 in 10.0 mi Variable 3.5 mph - N/A   Clear
3:53 PM 88.0 °F 89.3 °F 64.0 °F 45% 29.98 in 10.0 mi Calm Calm - N/A   Clear
4:53 PM 90.0 °F 91.3 °F 64.0 °F 42% 29.97 in 10.0 mi Variable 6.9 mph - N/A   Clear
5:53 PM 88.0 °F 88.7 °F 63.0 °F 43% 29.96 in 10.0 mi SW 4.6 mph - N/A   Clear
6:53 PM 86.0 °F 88.2 °F 66.0 °F 51% 29.96 in 10.0 mi South 4.6 mph - N/A   Mostly Cloudy
7:53 PM 82.0 °F 84.9 °F 68.0 °F 62% 29.97 in 10.0 mi Calm Calm - N/A   Scattered Clouds
8:53 PM 75.9 °F - 66.0 °F 71% 29.98 in 10.0 mi Calm Calm - N/A   Clear
9:53 PM 71.1 °F - 66.9 °F 87% 29.99 in 10.0 mi East 3.5 mph - N/A   Clear
10:53 PM 69.1 °F - 66.0 °F 90% 30.00 in 10.0 mi Calm Calm - N/A   Clear
11:53 PM 66.9 °F - 66.0 °F 97% 30.00 in 7.0 mi Calm Calm - N/A   Clear